Regional Weather Roundup
Issued by NWS

Home | Current Version | Previous Version | Text Only | Print | Product List | Glossary Off
Versions: 1 2 3 4 5 6 7 8 9 10 11 12 13 14 15 16 17 18 19 20 21 22 23 24 25 26 27 28 29 30 31 32 33 34 35 36 37 38 39 40 41 42 43 44 45 46 47 48 49 50

000
ASUS45 KTFX 270810
RWRMT
MONTANA REGIONAL WEATHER ROUNDUP
NATIONAL WEATHER SERVICE GREAT FALLS MT
200 AM MDT MON MAR 27 2017

NOTE: "FAIR" INDICATES FEW OR NO CLOUDS BELOW 12000 FEET WITH NO
SIGNIFICANT WEATHER AND/OR OBSTRUCTIONS TO VISIBILITY.

MTZ001>007-043-270900-
WEST OF THE DIVIDE

CITY           SKY/WX    TMP DP  RH WIND       PRES   REMARKS
KALISPELL      CLOUDY    40  37  89 S3        29.82S
MISSOULA       CLOUDY    40  38  93 NW3       29.84S
BUTTE          CLOUDY    37  29  72 CALM      29.82F
MULLAN PASS    FOG       30  30 100 VRB5      29.77S VSB 1/4
ANACONDA         N/A     39  28  65 SW3       29.82S
DEER LODGE       N/A     37  34  87 CALM      29.84S
EUREKA           N/A     39  36  87 SE5       29.79F
HAMILTON         N/A     43  34  70 S10       29.82S
RONAN            N/A     40  36  86 CALM      29.87S
$$

MTZ008-052>055-270900-
SOUTHWEST MONTANA

CITY           SKY/WX    TMP DP  RH WIND       PRES   REMARKS
BOZEMAN        CLOUDY    42  33  70 E8        29.82F
DILLON         CLOUDY    37  31  78 SE6       29.82S
W YELLOWSTONE  LGT SNOW  32  32 100 SW13      29.88F WCI  22
ENNIS          CLOUDY    39  28  65 S16       29.87S WCI  30
THREE FORKS      N/A     41  -2  16 CALM      29.83F
$$

MTZ009-010-012-014-046-048-049-054-270900-
EAST SLOPES AND CENTRAL MONTANA

CITY           SKY/WX    TMP DP  RH WIND       PRES   REMARKS
CUT BANK       CLOUDY    39  28  64 W5        29.79S
GREAT FALLS    CLOUDY    45  27  49 S14       29.78S
MALMSTROM AFB  MOCLDY    42  29  58 S9        29.78S
HELENA         CLOUDY    45  34  65 E10       29.80S
AUGUSTA        CLOUDY    40  29  65 W7        29.79S
BOWMANS CRNR   CLOUDY    40  30  67 SW7       29.77F
CHOTEAU          N/A     43  32  65 W10       29.80F
CONRAD           N/A     41  28  60 S3        29.83S
FAIRFIELD      MOCLDY    40  17  40 W3        29.78S
POWER          CLOUDY    38  19  45 S5        29.77S
RAYNESFORD     CLOUDY    45  30  56 SW14      29.79F
$$

MTZ011-013-016-021-045-047-050-051-270900-
NORTH CENTRAL MONTANA

CITY           SKY/WX    TMP DP  RH WIND       PRES   REMARKS
HAVRE          CLOUDY    41  24  51 NE10      29.80F
LEWISTOWN      CLOUDY    40  25  55 SE6       29.80F
N BAR RANCH    CLOUDY    39  25  56 W6        29.83F
CHINOOK          N/A     36  23  60 E3        29.84S
DENTON         CLOUDY    41  26  54 CALM      29.76F
FORT BENTON      N/A     48  25  40 MISG      29.79S
GEYSER         MOCLDY    38  22  52 W7        29.79S
GRASS RANGE    CLOUDY    39  29  67 W7        29.78S
STANFORD       CLOUDY    40  29  63 SW9       29.79F
WINIFRED       MOCLDY    42  25  50 SE9       29.80S
$$

MTZ017>020-022>027-061-062-270900-
NORTHEAST MONTANA

CITY           SKY/WX    TMP DP  RH WIND       PRES   REMARKS
GLASGOW        CLOUDY    33  24  69 E9        29.85F WCI  25
JORDAN           N/A     35  27  72 NE3       29.83F
SIDNEY         CLOUDY    35  27  72 S3        29.88S
WOLF POINT     CLOUDY    35  28  75 CALM      29.88S
MALTA          CLOUDY    32  27  80 CALM      29.85S
PLENTYWOOD       N/A     37  21  52 CALM      29.87F
POPLAR           N/A     37  28  70 CALM      29.89R
$$

MTZ028>42-056>058-270900-
SOUTHCENTRAL AND SOUTHEAST MONTANA

CITY           SKY/WX    TMP DP  RH WIND       PRES   REMARKS
BAKER          PTCLDY    37  33  85 SE3       29.88F
BILLINGS       CLOUDY    46  31  55 SW9       29.78F
LIVINGSTON     CLOUDY    40  28  62 N5        29.81F
MILES CITY     PTCLDY    41  32  70 NE7       29.83F
BIG TIMBER     CLOUDY    43  28  56 W12       29.84S
FORSYTH          N/A     43  36  75 E5        29.81S
HARLOWTON      MOCLDY    41  28  58 NW3       29.81S
LAUREL           N/A     41  26  55 CALM      29.80
$$

REGIONAL REPORTS...DAKOTAS

CITY           SKY/WX    TMP DP  RH WIND       PRES   REMARKS
WILLISTON      CLOUDY    35  30  82 CALM      29.88S
MINOT          CLEAR     33  32  96 NW5       29.88S FOG
DICKINSON      CLEAR     35  30  82 SW3       29.86S
BEACH            N/A    N/A N/A N/A MISG        N/A
TIOGA            N/A     34  34 100 CALM      29.89S
WATFORD CITY     N/A     32  30  93 CALM      29.88R
BISMARCK       PTCLDY    34  31  88 NE8       29.92F WCI  27
GRAND FORKS    CLOUDY    39  39 100 CALM      29.97R FOG
FARGO          PTCLDY    34  33  96 CALM      29.96R
BUFFALO SD       N/A     39  35  86 CALM      29.82F
RAPID CITY     FOG       31  31 100 CALM      29.90F VSB 3/4
$$

REGIONAL REPORTS...WYOMING/IDAHO/WASHINGTON

CITY           SKY/WX    TMP DP  RH WIND       PRES   REMARKS
GILLETTE       PTCLDY    39  34  82 S9        29.86F
SHERIDAN       CLOUDY    41  35  79 NW6       29.81F
BUFFALO WY     CLEAR     41  30  65 SE8       29.84F
CODY           CLOUDY    44  22  41 CALM      29.84F
YELLOWSTONE LA   N/A     27  27 100 CALM      29.91F
IDAHO FALLS    LGT RAIN  41  37  86 S8        29.91S
SALMON         CLOUDY    41  34  75 NE5       29.83S
BOISE          LGT RAIN  44  39  82 S8        29.91R
SPOKANE        DRIZZLE   41  39  93 S6        29.81S
$$

REGIONAL REPORTS...ALBERTA

CITY           SKY/WX    TMP DP  RH WIND       PRES   REMARKS
EDMONTON       PTCLDY    34  30  86 E3        29.77S
CALGARY        MOCLDY    39  16  38 VRB2      29.71S
LETHBRIDGE     CLOUDY    39  27  60 SW3       29.77S
MEDICINE HAT   CLEAR     36  21  55 VRB2      29.79S
WATERTON GATE    N/A     36  30  80 SW9         N/A  WCI  29
MILK RIVER       N/A     43  32  65 SW10        N/A
ONEFOUR          N/A     36  23  60 E7          N/A  WCI  30
$$

REGIONAL REPORTS...SASKATCHEWAN

CITY           SKY/WX    TMP DP  RH WIND       PRES   REMARKS
SWIFT CURRENT  CLEAR     28  27  93 SE9       29.83F WCI  20
REGINA         FOG       28  28 100 N7        29.89R VSB 1/2 WCI  21
SASKATOON      CLOUDY    27  27 100 E12       29.95F WCI  16
CYPRESS HILLS    N/A     36  14  41 S6          N/A  WCI  31
VAL MARIE        N/A     25  23  93 NE5         N/A
ROCKGLEN         N/A     36  19  51 S3          N/A
ASSINIBOIA       N/A     34  32  93 SE5         N/A
$$



USA.gov is the U.S. government's official web portal to all federal, state and local government web resources and services.